Terug naar catalogus

STARLINK-32293

ActiefCommunicatieVLEO
NORAD 61526·PAYLOAD·🇺🇸 United States

Gelanceerd Oct 15, 2024 vanaf Cape Canaveral Space Force Station

Loading…

Volgende Passages (komende 24 uur)

TLE

VersSource: CelesTrak SupGP

Epoch: Sep 15, 2026, 02:42 UTC

1 61526C 24183T   26258.11298611  .00072481  00000+0  21412-2 0  2581
2 61526  53.1588 340.6728 0001097  80.8676 182.4159 15.34358617    18

Volg STARLINK-32293 in realtime met AllMySat

Download on the App Store